Tracking 25734 objects as of 27-May-2022
HD Live streaming from Space Station
objects crossing your sky now

COSMOS 1823 DEB

Track COSMOS 1823 DEB now!
10-day predictions


NORAD ID: 39810
Int'l Code: 1987-020EJ
Perigee: 1,477.8 km
Apogee: 1,537.8 km
Inclination: 73.7 °
Period: 116.0 minutes
Semi major axis: 7878 km
RCS: 0.0123 m2 (small)
Launch date: February 20, 1987
Source: Commonwealth of Independent States (former USSR) (CIS)
Launch site: PLESETSK MISSILE AND SPACE COMPLEX (PKMTR)

Note: This is SATELLITE DEBRIS
aabbcc
Your satellite tracking list
Your tracking list is empty




NASA's NSSDC Master Catalog

Two Line Element Set (TLE):
1 39810U 87020EJ  22145.88455791  .00000143  00000-0  11746-2 0  9998
2 39810  73.7045   2.2403 0038108  81.3796 279.1563 12.41402224363292
Source of the keplerian elements: AFSPC